Location: *
(46.3500°N, 10.9000°E)
Time: 18:08:55
(UTC+00:00)

HJ-1C - Pass Details

Date: 09 April 2020
Orbit: 431 x 447 km, 97.2° (Epoch: 02 June)

Event Time Altitude Azimuth Distance (km) Brightness Sun altitude
Rises 18:20:35 0° 169° (S) 2,430 6.8 -4.9°
Reaches altitude 10° 18:22:35 10° 171° (S) 1,567 5.9 -5.2°
Maximum altitude 18:25:57 78° 257° (WSW) 463 3.6 -5.7°
Drops below altitude 10° 18:29:21 10° 345° (NNW) 1,587 6.7 -6.3°
Sets 18:31:24 0° 347° (NNW) 2,465 7.6 -6.6°
